Location: Marcé
(47.5801°N, 0.3280°W)
Time: 20:19:47
(UTC+01:00)

Altair - Pass Details

Date: 17 December 2021
Orbit: 1501 x 1683 km, 47.2° (Epoch: 20 January)

Event Time Altitude Azimuth Distance (km) Brightness Sun altitude
Rises 19:07:25 0° 291° (WNW) 4,748 11.0 -18.6°
Reaches altitude 10° 19:10:43 10° 284° (WNW) 3,738 10.4 -19.2°
Maximum altitude 19:19:18 42° 218° (SW) 2,045 8.5 -20.6°
Drops below altitude 10° 19:27:42 10° 151° (SSE) 3,646 9.3 -22.0°
Sets 19:30:53 0° 145° (SE) 4,621 9.8 -22.5°
